Location: Unspecified
(0.0000°N, 0.0000°E)
Time: 05:09:20
(UTC+00:00)

A-11 Canister half - Pass Details

Date: 20 April 2026
Orbit: 1523 x 1685 km, 47.3° (Epoch: 13 May)

Event Time Altitude Azimuth Distance (km) Brightness Sun altitude
Rises 22:26:36 0° 254° (WSW) 4,778 11.8 -64.3°
Enters shadow 22:29:24 - 263° (W) 4,107 11.4 -64.9°
Reaches altitude 10° 22:30:45 10° 269° (W) 3,820 - -65.2°
Maximum altitude 22:37:27 21° 314° (NW) 3,097 - -66.6°
Drops below altitude 10° 22:44:19 10° 358° (N) 3,897 - -68.1°
Sets 22:48:42 0° 14° (NNE) 4,903 - -69.0°
